Temperature
24 21 21 22 22 24 24 23 23 23 24 23 23 23 22 22 22 22 21 21 21 22 22 22 21 21 20 20 20 19 19 19 18 18 18 18 18 18 18 18 18 18 18 18
21 21 22 22 23 23 23 23 23 23 24 24 23 22 22 22 22 22 22 21 22 22 21 21 21 21 20 20 20 19 19 19 19 18 18 18 18 18 18 18 18 18 18 18
22 23 23 23 23 24 23 23 23 23 23 23 23 22 22 22 22 22 22 22 22 22 22 21 21 21 20 20 20 19 19 19 19 18 18 17 17 17 17 18 18 18 18 18
22 22 23 24 24 24 23 23 23 24 23 21 23 22 22 21 20 21 21 21 21 22 22 22 21 21 21 20 20 19 19 19 18 18 18 17 17 17 18 18 18 18 18 18
22 23 24 24 24 24 23 24 23 23 22 21 21 21 21 20 21 21 20 21 21 22 22 22 21 21 21 20 20 19 19 19 18 18 18 18 18 18 18 18 18 18 17 17
22 23 24 24 25 24 24 22 21 18 19 21 22 22 21 19 21 21 20 21 22 22 22 22 21 21 20 20 19 19 19 18 18 18 18 17 17 18 17 17 17 17 17 17
23 23 24 24 25 24 23 21 20 21 19 20 20 21 20 21 21 21 21 21 22 22 22 22 21 20 20 20 19 19 18 18 18 18 18 17 18 17 17 17 17 17 17 17
22 21 23 23 24 23 22 21 20 21 20 20 20 21 21 21 21 22 22 22 22 22 22 22 21 21 20 20 19 19 19 18 18 18 18 17 17 17 17 17 17 17 17 17
20 21 23 24 24 23 21 20 20 18 19 20 20 20 21 22 21 20 21 21 21 22 22 22 21 21 20 20 19 19 19 18 18 18 18 17 17 17 17 17 17 17 17 17
20 22 23 24 24 23 22 18 17 18 19 20 21 21 20 22 21 20 20 20 21 22 22 22 21 21 20 20 19 19 19 18 18 18 18 17 17 17 17 17 17 17 17 17
20 22 22 23 24 23 21 20 17 16 18 19 20 20 21 21 21 20 20 21 21 22 22 22 21 21 20 20 19 19 19 18 18 18 17 17 17 17 17 17 17 17 17 17
19 19 19 21 22 23 22 20 18 20 19 17 18 20 21 20 20 20 21 21 22 22 22 22 22 21 20 20 19 19 19 18 18 18 18 17 17 17 17 17 17 17 17 17
19 18 20 21 22 22 22 20 18 17 16 16 19 21 21 20 20 21 21 22 22 22 22 22 21 21 20 20 19 19 19 18 18 18 18 18 17 17 17 17 17 17 17 17
19 17 19 21 20 21 23 21 18 18 17 17 18 21 21 20 19 20 21 22 22 22 22 22 21 21 20 20 19 19 19 19 18 18 18 18 17 17 17 17 17 17 17 16
18 18 19 20 21 22 23 22 20 20 19 19 20 19 21 20 19 21 22 21 21 21 21 22 22 21 20 20 19 19 19 19 18 18 18 18 17 17 17 17 16 16 16 16
16 19 19 21 21 22 23 23 21 22 21 21 21 21 20 20 21 21 21 21 21 22 22 22 22 21 21 20 20 19 19 18 18 18 18 17 17 17 17 16 16 16 16 16
15 17 18 19 21 22 22 22 22 22 22 21 21 21 20 19 19 20 21 21 22 22 22 22 22 22 21 21 20 19 19 19 18 18 18 17 17 17 16 16 16 16 16 16
15 15 15 17 20 21 20 21 22 22 21 20 20 20 19 19 20 21 22 22 22 22 22 22 22 22 21 21 20 19 19 18 18 18 18 17 17 17 16 16 16 16 16 15
14 15 14 15 18 20 21 21 20 21 21 20 19 18 18 19 19 20 21 22 23 23 23 22 22 22 21 20 20 19 19 18 18 18 17 17 17 16 16 16 16 15 15 15
13 14 14 15 18 19 20 21 20 21 21 19 18 17 17 19 18 19 21 21 22 22 22 22 22 21 20 20 19 19 19 18 18 17 17 16 16 16 16 15 15 15 15 15
15 14 15 15 17 17 18 18 20 21 20 19 18 18 18 18 18 20 20 21 21 21 21 21 21 20 20 19 19 19 18 18 17 17 16 16 16 16 15 15 15 15 15 14
14 14 14 14 17 17 18 18 19 18 18 18 18 19 18 18 18 19 19 19 20 20 20 20 20 20 19 19 18 18 18 17 17 16 16 16 15 15 15 15 14 14 14 14
13 13 13 14 15 15 16 16 18 18 18 19 19 19 19 18 18 18 18 18 18 18 19 19 19 19 18 18 18 18 17 17 16 16 15 15 14 14 14 14 14 14 14 13
13 12 12 13 14 14 15 16 17 18 19 19 19 19 19 18 18 18 17 17 17 17 18 18 18 18 17 17 17 17 17 16 15 15 15 14 14 14 14 14 13 13 13 13
13 12 12 13 14 15 16 16 17 18 18 18 18 19 18 18 17 17 17 17 17 17 17 17 17 17 16 16 16 16 15 15 15 14 14 14 13 13 13 13 13 13 12 12
11 12 13 13 14 13 15 16 17 17 17 18 18 17 17 18 17 17 17 17 17 17 16 16 16 16 16 15 15 15 14 14 14 13 13 13 13 13 12 12 12 12 12 11
Wind_Speed
4 4 3 6 6 4 2 2 5 6 5 2 2 3 4 4 5 6 7 8 8 8 5 6 8 9 9 9 10 10 10 9 8 6 5 5 5 4 4 5 8 9 10 10
5 4 7 5 4 3 2 3 5 5 4 2 2 3 3 3 6 7 8 9 9 7 5 6 8 9 10 11 10 10 11 10 9 8 6 4 4 3 4 4 6 9 10 10
7 5 2 4 2 2 3 5 5 4 5 5 3 6 3 2 1 3 5 6 7 9 9 8 8 8 9 10 12 12 11 10 10 8 5 3 2 2 2 4 4 6 10 10
6 6 3 3 4 5 5 6 6 3 1 3 3 3 6 3 3 5 7 7 8 8 7 7 8 8 9 9 9 8 9 9 9 9 8 8 7 6 6 5 5 4 7 9
7 4 4 5 6 8 6 0 2 1 3 2 3 1 8 3 5 7 7 8 8 8 8 8 7 8 7 7 7 7 7 7 8 9 10 9 7 6 4 4 5 5 4 7
6 4 5 6 3 5 4 6 7 6 5 2 2 1 7 5 7 6 6 7 8 8 8 7 5 5 5 6 6 6 7 7 7 8 8 9 9 7 6 6 6 5 4 4
4 5 5 5 1 1 5 6 5 5 5 4 4 2 9 8 7 7 8 9 8 8 8 8 7 7 7 6 6 6 7 6 6 7 8 8 8 8 8 7 7 6 4 4
5 7 5 6 8 7 6 9 8 5 4 5 4 5 8 7 6 4 5 7 7 8 8 9 8 8 7 7 7 7 7 5 5 6 6 6 6 6 5 6 6 6 5 5
8 7 5 5 6 11 7 5 8 7 4 0 5 7 9 3 3 1 3 6 7 8 8 8 8 8 7 7 7 7 7 5 5 6 5 4 5 5 6 6 5 5 4 4
10 5 5 3 4 3 6 10 7 7 6 3 5 5 5 7 5 3 4 6 7 7 8 8 7 7 7 6 5 5 6 5 5 5 5 5 5 5 5 5 5 5 5 4
8 6 5 3 5 8 6 6 6 6 6 7 4 8 8 9 8 8 8 7 8 8 8 8 7 7 7 6 5 5 5 5 4 5 5 5 4 4 5 5 4 4 4 5
8 6 5 8 5 4 6 9 9 6 5 5 5 8 7 8 8 8 8 7 7 8 7 7 7 7 6 6 5 5 5 5 5 5 5 5 4 4 4 4 3 3 3 4
9 7 2 7 5 1 4 6 6 7 7 6 6 8 4 3 4 6 7 7 7 8 8 7 7 7 7 7 6 6 5 5 5 5 5 4 4 4 4 3 3 3 3 3
7 6 8 11 9 7 6 6 7 7 6 7 8 9 8 6 7 7 7 7 7 8 9 8 7 7 7 6 6 6 5 5 5 5 5 4 4 4 3 3 3 3 3 3
6 6 7 7 5 5 6 7 9 8 9 10 9 9 12 11 11 9 7 6 7 8 9 9 9 7 7 6 6 6 5 5 5 6 5 4 4 3 3 3 3 3 3 3
3 5 4 2 4 6 4 6 9 7 6 6 5 8 9 6 4 5 7 8 9 10 10 10 9 8 9 9 8 7 6 5 5 6 5 4 4 4 4 3 3 3 2 2
2 5 5 3 1 5 5 7 7 5 5 7 8 8 4 3 7 9 9 9 11 11 10 10 10 9 9 8 8 8 6 6 5 5 5 4 5 4 3 4 4 3 3 3
6 5 4 3 4 6 9 4 4 5 4 5 6 5 5 6 4 3 5 8 9 9 9 10 9 8 6 6 6 6 6 6 6 5 5 4 5 5 4 4 4 3 3 3
5 8 5 4 5 4 5 2 4 5 3 3 5 3 2 3 3 2 2 4 7 7 7 7 8 8 7 7 7 7 6 6 5 5 4 4 5 6 5 5 4 4 4 4
5 5 6 5 5 7 8 3 1 4 3 3 3 4 4 5 2 4 1 2 3 5 6 7 7 7 7 6 7 8 7 6 5 4 4 4 5 6 6 5 4 4 4 4
4 4 5 5 4 7 6 5 1 5 7 2 3 4 5 4 4 1 3 3 5 6 7 8 8 7 6 6 7 7 6 5 4 4 5 4 5 5 5 5 4 5 5 5
7 6 6 6 5 7 3 1 4 6 2 2 3 3 5 4 4 4 5 5 7 7 7 8 8 6 5 5 7 7 5 3 4 5 5 4 4 4 5 6 5 5 5 6
4 6 6 7 7 4 3 4 4 2 2 2 3 3 7 6 5 4 5 6 6 6 6 6 7 7 4 4 5 6 4 4 5 5 5 5 4 4 4 6 6 5 5 4
1 2 3 1 3 3 3 3 2 0 1 2 4 6 7 7 7 7 6 6 5 5 5 5 6 6 4 3 4 4 4 4 5 5 5 5 5 4 4 4 4 4 4 4
3 2 2 1 3 3 4 3 2 3 4 5 6 6 6 8 8 7 7 6 5 5 4 4 5 5 4 3 4 3 3 4 5 5 4 4 4 4 4 3 3 3 2 4
3 4 5 5 6 4 3 2 1 4 4 5 6 6 5 5 6 6 6 5 5 5 4 4 4 4 3 3 3 3 3 4 5 4 4 3 4 4 4 4 4 7 5 6
Wind_Direction
65 79 208 215 194 186 177 265 290 280 295 333 279 267 267 200 186 192 195 192 193 205 193 165 169 173 172 174 175 179 176 175 170 169 179 184 199 198 200 205 203 195 192 189
43 265 232 187 177 185 209 288 288 302 342 19 325 311 308 211 206 207 202 197 195 192 174 170 169 170 176 179 179 178 182 182 182 184 181 180 179 190 202 208 203 197 192 190
189 232 176 158 188 208 242 214 235 263 342 19 25 339 323 306 251 230 217 201 190 190 189 185 179 176 174 180 184 188 187 185 185 178 160 149 137 139 183 211 210 203 196 192
222 248 215 217 227 180 259 228 210 230 30 320 30 300 295 297 290 243 224 204 195 192 186 184 182 181 184 188 185 182 181 180 180 174 176 178 188 195 203 200 201 198 198 194
225 213 187 221 224 176 218 171 134 106 144 27 18 148 288 324 274 255 231 209 197 189 181 186 189 187 183 176 178 178 176 180 179 181 185 187 197 201 193 183 184 192 195 198
228 226 207 212 205 175 161 69 53 47 70 29 302 188 279 254 237 254 232 208 193 180 171 172 171 162 164 163 169 171 178 188 185 186 190 194 196 192 183 184 187 193 193 197
281 268 236 192 215 31 111 90 31 4 15 259 289 235 254 258 248 238 226 205 190 174 168 165 167 170 173 171 171 171 179 189 188 191 197 200 199 193 191 189 191 190 191 199
201 276 240 197 187 186 171 141 156 190 216 274 321 249 260 275 287 262 204 181 173 171 172 171 173 174 175 175 175 176 184 189 188 192 196 196 195 192 193 188 187 194 200 204
182 245 278 231 193 149 139 169 155 130 146 292 290 291 303 299 343 35 150 160 173 177 176 170 166 169 172 178 183 183 181 181 189 193 187 190 195 193 191 186 185 193 200 200
160 223 281 290 108 61 142 141 109 125 145 219 287 283 256 270 257 224 192 186 182 174 169 167 168 169 172 177 182 175 172 178 180 179 183 192 191 190 187 182 189 197 200 197
150 180 283 346 179 173 115 113 111 117 145 153 219 266 231 229 224 213 211 198 185 182 174 171 172 169 162 158 163 165 166 167 171 173 174 173 179 179 176 176 186 194 199 198
161 148 231 259 256 181 166 165 148 151 191 168 172 260 268 239 230 212 210 200 186 180 171 167 162 159 159 163 166 169 169 166 167 164 160 166 163 164 171 178 186 187 194 200
145 136 160 325 330 162 166 161 151 124 119 148 168 258 297 288 233 214 206 197 180 170 165 165 165 168 171 172 171 171 171 168 158 153 152 156 163 167 176 181 182 177 180 185
132 135 172 199 213 190 173 162 150 130 146 183 213 245 281 267 242 227 212 199 180 172 174 177 179 176 173 172 172 170 168 163 155 152 156 165 173 178 183 175 166 167 169 172
125 177 203 217 207 178 181 174 168 172 178 179 218 224 248 239 227 220 204 183 174 177 181 185 183 177 170 170 173 171 169 163 155 152 160 173 167 159 153 149 153 152 152 164
97 163 168 219 198 189 196 194 178 182 177 198 215 248 250 244 206 207 199 184 188 193 190 185 178 175 178 179 177 172 171 167 155 156 163 158 150 146 146 143 136 129 129 129
112 127 127 203 199 126 214 207 187 182 182 173 202 237 249 212 206 208 202 196 198 196 189 183 182 182 182 180 173 172 168 157 155 158 158 156 153 150 151 143 129 127 128 121
140 114 123 138 124 194 236 251 189 171 201 210 223 241 224 225 214 211 203 198 201 193 183 180 176 171 169 164 156 150 143 147 157 161 160 157 151 150 142 133 132 127 124 123
152 136 121 128 169 248 292 245 167 165 228 223 217 231 177 131 67 337 254 206 199 188 173 168 164 158 156 154 151 141 141 146 155 166 170 171 161 154 151 152 144 129 122 115
72 102 117 129 152 212 234 268 259 125 259 257 189 187 161 126 154 255 270 151 135 126 130 137 135 132 139 144 141 139 146 150 162 168 166 161 155 155 158 155 141 126 123 121
97 87 127 150 187 247 253 289 113 159 231 245 181 180 168 172 202 197 96 87 100 108 116 121 120 124 131 133 133 139 144 158 160 147 143 140 147 150 148 142 134 131 126 121
164 152 165 146 173 239 286 45 178 213 233 179 172 166 156 131 93 82 87 96 100 105 110 117 118 114 112 124 134 138 145 145 129 129 125 123 129 137 137 137 130 127 129 129
178 183 180 183 203 245 285 249 269 215 187 194 166 149 137 127 118 103 96 95 92 98 104 105 113 108 96 101 129 139 140 134 131 127 128 128 124 119 130 137 139 136 133 137
252 137 132 197 275 293 309 304 317 22 159 142 133 131 133 133 132 124 113 103 96 92 99 104 109 111 108 98 100 112 122 130 136 139 140 140 138 130 125 132 142 149 153 156
226 143 119 218 279 330 341 350 18 60 81 89 92 104 124 131 131 131 123 116 110 99 90 99 112 112 104 101 99 102 116 126 128 135 139 139 140 140 129 116 111 143 153 175
215 178 170 208 218 192 244 298 80 107 107 113 108 98 99 120 128 119 117 115 111 104 98 100 99 101 96 94 98 107 124 133 137 142 146 148 148 146 142 133 101 64 80 98
Height
1507 1513 1519 1517 1516 1516 1518 1522 1525 1518 1507 1509 1510 1509 1506 1504 1506 1507 1508 1510 1512 1513 1516 1519 1521 1524 1527 1530 1532 1534 1537 1540 1543 1546 1549 1552 1555 1558 1560 1563 1566 1567 1570 1572
1513 1516 1510 1510 1512 1515 1518 1522 1523 1516 1507 1509 1511 1510 1506 1504 1505 1505 1506 1507 1509 1512 1515 1517 1519 1522 1525 1527 1530 1533 1535 1537 1540 1543 1547 1550 1553 1556 1559 1561 1564 1566 1568 1570
1513 1511 1506 1509 1512 1515 1517 1520 1519 1518 1512 1511 1513 1516 1510 1505 1505 1505 1505 1506 1508 1510 1513 1515 1518 1520 1523 1525 1527 1530 1533 1535 1538 1541 1545 1548 1551 1553 1556 1558 1560 1563 1566 1568
1509 1505 1505 1508 1510 1512 1520 1510 1512 1514 1521 1527 1521 1534 1516 1509 1506 1503 1502 1504 1506 1509 1511 1514 1517 1519 1521 1524 1526 1529 1531 1534 1536 1539 1541 1544 1547 1549 1552 1555 1558 1560 1563 1566
1507 1503 1504 1507 1505 1506 1510 1506 1509 1513 1520 1529 1526 1533 1525 1512 1509 1503 1500 1501 1504 1506 1509 1513 1516 1518 1521 1523 1525 1528 1530 1532 1534 1536 1539 1541 1543 1546 1549 1552 1555 1558 1561 1563
1501 1499 1499 1499 1498 1500 1503 1510 1516 1524 1531 1542 1530 1534 1530 1515 1506 1501 1499 1499 1501 1504 1508 1511 1515 1517 1520 1522 1524 1526 1528 1530 1532 1534 1536 1538 1540 1543 1546 1549 1552 1555 1558 1560
1504 1499 1495 1495 1500 1501 1505 1523 1543 1544 1552 1547 1532 1533 1527 1504 1498 1497 1496 1497 1499 1503 1506 1509 1513 1516 1518 1521 1523 1525 1527 1528 1530 1532 1534 1536 1538 1540 1543 1546 1549 1552 1554 1557
1513 1513 1495 1492 1496 1503 1507 1517 1541 1551 1554 1547 1533 1533 1515 1498 1494 1493 1493 1495 1498 1501 1504 1508 1511 1514 1516 1518 1521 1523 1524 1526 1528 1530 1531 1534 1536 1538 1541 1543 1546 1549 1551 1554
1512 1510 1491 1487 1488 1494 1508 1515 1516 1537 1543 1547 1540 1526 1508 1495 1494 1493 1493 1494 1497 1500 1503 1506 1509 1512 1515 1517 1519 1521 1522 1524 1526 1528 1529 1531 1533 1536 1538 1540 1543 1546 1548 1551
1497 1504 1492 1487 1488 1492 1496 1508 1524 1537 1551 1552 1539 1531 1522 1501 1496 1494 1494 1495 1496 1499 1502 1505 1508 1510 1513 1515 1518 1519 1521 1523 1524 1526 1527 1529 1531 1534 1536 1538 1540 1543 1546 1548
1489 1501 1498 1493 1492 1497 1503 1509 1519 1532 1535 1549 1549 1534 1501 1496 1491 1492 1492 1494 1495 1497 1500 1503 1506 1509 1511 1514 1516 1518 1520 1521 1522 1524 1526 1527 1529 1531 1533 1535 1538 1540 1542 1545
1486 1498 1507 1499 1487 1486 1490 1500 1512 1524 1532 1538 1540 1528 1489 1488 1487 1489 1490 1492 1494 1497 1500 1503 1505 1508 1510 1512 1515 1517 1518 1520 1521 1523 1524 1526 1528 1530 1531 1533 1536 1538 1540 1542
1484 1498 1511 1508 1500 1491 1491 1496 1502 1512 1528 1539 1538 1520 1488 1487 1486 1487 1489 1490 1493 1496 1499 1502 1504 1506 1509 1511 1514 1515 1517 1519 1520 1522 1523 1525 1527 1528 1530 1532 1534 1536 1538 1539
1475 1492 1501 1508 1502 1491 1490 1494 1500 1507 1523 1530 1524 1509 1492 1488 1486 1485 1486 1488 1491 1494 1497 1500 1503 1505 1508 1510 1513 1514 1516 1518 1519 1521 1522 1524 1526 1528 1529 1531 1533 1534 1535 1537
1475 1487 1487 1486 1483 1483 1483 1487 1494 1497 1503 1510 1505 1503 1490 1483 1482 1482 1484 1487 1489 1492 1495 1498 1501 1504 1507 1509 1512 1514 1515 1517 1519 1520 1522 1524 1525 1527 1528 1530 1531 1532 1533 1534
1477 1483 1484 1483 1481 1481 1483 1482 1486 1488 1491 1494 1493 1493 1479 1478 1479 1481 1482 1484 1487 1489 1492 1496 1499 1502 1505 1508 1510 1513 1515 1516 1518 1520 1521 1523 1524 1526 1527 1528 1530 1531 1532 1532
1481 1484 1491 1494 1483 1483 1492 1482 1482 1482 1482 1485 1490 1483 1477 1477 1477 1477 1479 1481 1483 1486 1490 1493 1497 1500 1503 1506 1509 1511 1513 1515 1517 1519 1520 1522 1523 1525 1526 1527 1528 1529 1530 1530
1480 1486 1495 1497 1491 1501 1487 1474 1474 1477 1478 1478 1477 1475 1474 1474 1474 1476 1477 1479 1481 1484 1488 1491 1495 1499 1502 1505 1507 1509 1512 1514 1516 1517 1519 1520 1521 1523 1524 1525 1526 1527 1528 1528
1473 1482 1495 1502 1500 1493 1480 1472 1473 1476 1478 1474 1474 1473 1473 1473 1474 1475 1476 1478 1480 1483 1486 1490 1493 1497 1501 1503 1506 1508 1510 1512 1514 1516 1517 1518 1520 1521 1522 1523 1524 1525 1526 1527
1475 1478 1491 1499 1498 1500 1482 1469 1468 1472 1480 1472 1471 1472 1473 1474 1480 1476 1475 1476 1479 1482 1485 1488 1492 1496 1499 1501 1504 1506 1508 1509 1511 1513 1515 1516 1517 1519 1520 1521 1523 1524 1524 1525
1481 1485 1490 1495 1494 1489 1473 1469 1469 1484 1480 1469 1469 1470 1471 1472 1474 1474 1475 1476 1478 1481 1484 1487 1491 1494 1497 1500 1502 1504 1506 1507 1509 1511 1512 1514 1515 1516 1518 1519 1520 1521 1522 1523
1480 1486 1490 1494 1494 1490 1470 1469 1472 1472 1466 1466 1467 1468 1470 1471 1473 1474 1475 1476 1478 1480 1483 1487 1490 1493 1496 1499 1501 1503 1504 1506 1507 1508 1509 1511 1513 1514 1516 1517 1518 1519 1520 1521
1476 1477 1479 1481 1481 1472 1469 1468 1467 1466 1465 1465 1465 1467 1468 1471 1473 1475 1476 1478 1480 1482 1484 1487 1490 1493 1495 1497 1499 1501 1502 1504 1505 1506 1507 1508 1510 1512 1513 1514 1515 1516 1517 1518
1472 1472 1474 1475 1471 1469 1467 1466 1466 1465 1465 1465 1466 1467 1468 1470 1473 1475 1477 1479 1481 1484 1486 1488 1490 1492 1494 1495 1497 1499 1500 1501 1502 1503 1505 1506 1508 1509 1510 1511 1512 1513 1514 1515
1471 1471 1473 1473 1470 1467 1466 1466 1466 1466 1466 1467 1467 1468 1470 1472 1473 1475 1477 1480 1482 1484 1486 1488 1490 1491 1493 1494 1495 1496 1497 1499 1500 1501 1503 1504 1505 1506 1507 1508 1509 1510 1512 1513
1469 1470 1472 1471 1467 1468 1467 1467 1466 1467 1467 1468 1468 1470 1471 1473 1474 1476 1478 1480 1481 1483 1485 1487 1488 1490 1491 1493 1493 1494 1495 1496 1497 1499 1500 1501 1502 1503 1504 1505 1506 1508 1509 1511